Regional Weather Roundup
Issued by NWS

Home | Current Version | Previous Version | Graphics & Text | Print | Product List | Glossary On
Versions: 1 2 3 4 5 6 7 8 9 10 11 12 13 14 15 16 17 18 19 20 21 22 23 24 25 26 27 28 29 30 31 32 33 34 35 36 37 38 39 40 41 42 43 44 45 46 47 48 49 50
000
ASUS45 KBOI 260610
RWRID

IDAHO REGIONAL WEATHER ROUNDUP
NATIONAL WEATHER SERVICE BOISE ID
1200 AM MDT MON SEP 26 2016

NOTE: "FAIR" INDICATES FEW OR NO CLOUDS BELOW 12000 FEET
WITH NO SIGNIFICANT WEATHER AND/OR OBSTRUCTIONS TO VISIBILITY

IDZ012-014-260700-
SOUTHWEST IDAHO


CITY           SKY/WX    TMP DP  RH WIND       PRES   REMARKS
BOISE          CLEAR     59  35  40 SE10      30.35F
CALDWELL       CLEAR     53  38  56 CALM      30.34S
MOUNTAIN HOME  CLEAR     53  40  63 CALM      30.37S
$$

IDZ016-017-260700-
SOUTHCENTRAL IDAHO


CITY           SKY/WX    TMP DP  RH WIND       PRES   REMARKS
BURLEY         CLEAR     47  42  83 SW3       30.42S
JEROME         CLEAR     52  39  61 E8        30.42F
TWIN FALLS     CLEAR     50  34  54 S9        30.43S
$$

IDZ019>023-260700-
SOUTHEAST IDAHO


CITY           SKY/WX    TMP DP  RH WIND       PRES   REMARKS
IDAHO FALLS    CLEAR     44  40  85 CALM      30.46F
POCATELLO      CLEAR     47  39  74 CALM      30.45S
REXBURG        CLEAR     45  40  82 NE5       30.47S
$$

IDZ006-010-011-018-031-032-260700-
CENTRAL IDAHO MOUNTAINS


CITY           SKY/WX    TMP DP  RH WIND       PRES   REMARKS
MCCALL         CLEAR     50  42  74 CALM      30.45S
HAILEY         CLEAR     50  43  76 NW14      30.48F
STANLEY          N/A     44  38  79 S6        30.54S
SALMON         CLEAR     45  37  76 CALM      30.44R
CHALLIS        CLEAR     49  39  68 CALM      30.46S
$$

IDZ002-004-006-007-026-260700-
NORTHERN IDAHO


CITY           SKY/WX    TMP DP  RH WIND       PRES   REMARKS
LEWISTON       CLEAR     61  35  37 S5        30.31F
LOWELL           N/A     51  47  86 N3        30.41F
COEUR D`ALENE  NOT AVBL
MULLAN PASS    CLEAR     50  37  61 S3        30.49F
$$



USA.gov is the U.S. government's official web portal to all federal, state and local government web resources and services.